Location: Mentone
(34.5413°N, 85.5351°W)
Time: 02:56:32
(UTC-05:00)

Amateur Radio Satellites - All Passes

Search period start: 19 April 2015 02:26
Search period end: 20 April 2015 02:26
Location: Mentone, 34.5413°N, 85.5351°W

Satellite Date Start Highest point End Downlink Frequencies (MHz)
Time Altitude Azimuth
STARS 19 Apr 02:40:45 02:44:52 42° 73° (ENE) 02:49:01 437.465
BEESAT 19 Apr 02:44:18 02:47:43 19° 267° (W) 02:51:00 436.000
SWISSCUBE 19 Apr 02:45:50 02:48:59 17° 268° (W) 02:51:55 437.505
RS-15 19 Apr 02:46:21 02:56:34 35° 253° (WSW) 03:06:43 29.354- 29.394
PHONESAT 2.4 19 Apr 02:53:53 02:56:53 25° 214° (SW) 02:59:50 2401.200-2431.200
KKS-1 19 Apr 03:03:53 03:08:15 61° 259° (W) 03:12:39 437.445
Cosmos 2504 19 Apr 03:05:06 03:11:35 26° 275° (W) 03:17:27 435.465 / 435.565
BEESAT 3 19 Apr 03:18:20 03:20:13 13° 110° (ESE) 03:22:18 437.485
CUSAT 1 19 Apr 03:23:36 03:24:06 10° 65° (ENE) 03:25:19 437.405
Oscar 19 19 Apr 03:32:40 03:36:04 17° 293° (WNW) 03:39:13 437.125/150
Gurwin Techsat 1B 19 Apr 03:34:27 03:39:43 63° 285° (WNW) 03:44:57 435.225
AO-7 19 Apr 03:36:49 03:42:57 24° 94° (E) 03:49:26 29.400- 29.500
HORYU 2 19 Apr 03:41:50 03:45:44 29° 96° (E) 03:49:39 437.375
JUGNU 19 Apr 03:47:06 03:49:43 13° 168° (SSE) 03:52:24 437.505
GONETS M04 19 Apr 03:48:45 03:56:44 38° 74° (ENE) 04:04:50
ITAMSAT 1 19 Apr 03:49:17 03:54:03 38° 289° (WNW) 03:58:45 435.822/435.867
JAS-2 19 Apr 04:04:54 04:10:41 33° 93° (E) 04:15:57 435.910
MOZHAYETS 4 19 Apr 04:12:49 04:17:09 41° 73° (ENE) 04:21:31
STARS 19 Apr 04:19:15 04:21:35 14° 268° (W) 04:23:42 437.465
AUBIESAT-1 19 Apr 04:33:13 04:34:50 12° 61° (ENE) 04:36:43 437.475
BEESAT 2 19 Apr 04:45:29 04:49:34 66° 301° (WNW) 04:53:41 435.950
DANDE 19 Apr 04:51:21 04:57:54 45° 78° (ENE) 05:05:46 436.750
BEESAT 3 19 Apr 04:54:01 04:57:54 42° 303° (WNW) 05:01:50 437.485
AIST 2 19 Apr 04:59:54 05:04:00 51° 116° (ESE) 05:08:10 435.215
CUSAT 1 19 Apr 05:00:48 05:07:53 66° 80° (E) 05:16:08 437.405
M-CUBED/EXP-1 PRIME 19 Apr 05:15:27 05:19:43 37° 68° (ENE) 05:24:11 437.505
HORYU 2 19 Apr 05:18:44 05:22:15 22° 290° (WNW) 05:25:37 437.375
AO-7 19 Apr 05:28:08 05:36:22 65° 290° (WNW) 05:44:32 29.400- 29.500
CUBESAT XI-V 19 Apr 05:29:26 05:32:43 20° 70° (ENE) 05:36:08 437.345
SRMSAT 19 Apr 05:30:26 05:33:12 14° 168° (SSE) 05:36:03 437.500
JUGNU 19 Apr 05:34:07 05:38:02 18° 177° (S) 05:41:57 437.505
GONETS M04 19 Apr 05:45:29 05:53:39 41° 271° (W) 06:01:37
CUTE-I 19 Apr 05:45:31 05:47:39 13° 90° (E) 05:50:09 437.470
JAS-2 19 Apr 05:49:54 05:55:45 33° 293° (WNW) 06:00:54 435.910
STRAND 1 19 Apr 05:51:12 05:54:35 19° 68° (ENE) 05:58:10 437.568
MOZHAYETS 4 19 Apr 05:51:38 05:54:35 16° 268° (W) 05:57:21
Cubesat XI-IV 19 Apr 05:52:08 05:55:07 16° 91° (E) 05:58:22 437.490
Cosmos 2499 19 Apr 05:54:47 06:02:00 38° 74° (ENE) 06:08:51 435.465 / 435.565
PRISM 19 Apr 06:00:36 06:04:06 27° 72° (ENE) 06:07:40 437.425
AUBIESAT-1 19 Apr 06:04:26 06:09:02 72° 254° (WSW) 06:13:51 437.475
DANDE 19 Apr 06:34:50 06:41:07 34° 267° (W) 06:48:12 436.750
AIST 2 19 Apr 06:40:26 06:42:56 15° 312° (NW) 06:45:18 435.215
CUSAT 1 19 Apr 06:44:49 06:50:26 23° 270° (W) 06:56:13 437.405
M-CUBED/EXP-1 PRIME 19 Apr 06:51:13 06:54:42 20° 263° (W) 06:58:08 437.505
CUBESAT XI-V 19 Apr 07:05:43 07:09:58 34° 263° (W) 07:14:10 437.345
SRMSAT 19 Apr 07:17:41 07:21:41 19° 178° (S) 07:25:42 437.500
JUGNU 19 Apr 07:22:46 07:26:22 17° 187° (S) 07:29:55 437.505
CUTE-I 19 Apr 07:23:00 07:28:15 64° 286° (WNW) 07:33:30 437.470
AO-7 19 Apr 07:24:50 07:27:49 12° 307° (NW) 07:30:12 29.400- 29.500
STRAND 1 19 Apr 07:28:37 07:33:30 44° 261° (W) 07:38:23 437.568
Cubesat XI-IV 19 Apr 07:30:26 07:35:36 53° 287° (WNW) 07:40:45 437.490
PRISM 19 Apr 07:36:26 07:39:34 20° 265° (W) 07:42:37 437.425
Cosmos 2499 19 Apr 07:48:06 07:55:04 34° 273° (W) 08:01:27 435.465 / 435.565
PCSat 19 Apr 08:23:35 08:25:59 14° 105° (ESE) 08:28:44 145.827
BRITE-PL 19 Apr 08:24:55 08:29:28 37° 98° (E) 08:34:23 437.365/2234.400
DOVE 4 19 Apr 08:25:33 08:28:29 16° 92° (E) 08:31:45 437.250
O/OREOS (USA 219) 19 Apr 08:34:32 08:35:58 12° 55° (NE) 08:37:39 437.305
CANX-2 19 Apr 08:37:59 08:41:18 22° 94° (E) 08:44:43 2200.000
SEEDS 19 Apr 08:42:21 08:45:14 18° 93° (E) 08:48:15 437.485
CUTE 1.7 + AOD 2 19 Apr 08:48:04 08:51:39 26° 95° (E) 08:55:17 437.475
GOMX 1 19 Apr 08:49:54 08:54:39 44° 98° (E) 08:59:42 467.674
SRMSAT 19 Apr 09:06:30 09:10:11 17° 187° (S) 09:13:50 437.500
HO-68 19 Apr 09:13:39 09:20:43 59° 101° (ESE) 09:27:47 435.675
CUBEBUG 2 19 Apr 09:15:59 09:18:03 13° 90° (E) 09:20:23 437.445
AAUSAT CUBESAT 2 19 Apr 09:16:31 09:20:16 32° 97° (E) 09:24:02 437.432
Cosmos 2491 19 Apr 09:24:33 09:30:47 22° 67° (ENE) 09:37:27 435.465 / 435.565
Oscar 11 19 Apr 09:28:40 09:31:49 20° 94° (E) 09:35:04 145.826/435.025
DELFI C3 19 Apr 09:39:41 09:42:30 19° 93° (E) 09:45:26 145.870
ANTELSAT 19 Apr 09:42:54 09:46:08 21° 70° (ENE) 09:49:35 437.575/2403.000
DX 1 19 Apr 09:51:43 09:52:37 11° 90° (E) 09:53:49 434.975-435.025
UWE-3 19 Apr 09:55:57 10:00:02 30° 96° (E) 10:04:11 435.000/436.395/437.385
DOVE 4 19 Apr 10:01:40 10:06:29 50° 285° (WNW) 10:11:30 437.250
CINEMA 3 19 Apr 10:02:18 10:07:14 86° 105° (ESE) 10:12:17 145.822/145.860
COMPASS 1 19 Apr 10:02:58 10:07:06 54° 285° (WNW) 10:11:12 437.405
PCSat 19 Apr 10:03:33 10:08:55 65° 298° (WNW) 10:14:20 145.827
BRITE-PL 19 Apr 10:04:03 10:07:50 22° 289° (WNW) 10:11:41 437.365/2234.400
QB50P2 19 Apr 10:06:43 10:09:27 18° 70° (ENE) 10:12:20 145.880/145.840
HUMSAT D 19 Apr 10:07:05 10:09:03 13° 91° (E) 10:11:15 437.325/437.525
O/OREOS (USA 219) 19 Apr 10:11:27 10:15:53 59° 253° (WSW) 10:20:15 437.305
CANX-2 19 Apr 10:13:39 10:17:13 25° 288° (WNW) 10:20:41 2200.000
SEEDS 19 Apr 10:17:22 10:21:07 30° 287° (WNW) 10:24:46 437.485
CUTE 1.7 + AOD 2 19 Apr 10:24:09 10:27:27 21° 289° (WNW) 10:30:38 437.475
FUNcube-1 19 Apr 10:24:47 10:29:14 49° 99° (E) 10:33:42 145.935
YUBILEINY 19 Apr 10:28:42 10:35:37 28° 86° (E) 10:42:51 435.215
POPSAT HIP 1 19 Apr 10:28:50 10:32:30 31° 72° (ENE) 10:36:14 437.405
GOMX 1 19 Apr 10:29:00 10:32:32 19° 290° (WNW) 10:36:02 467.674
NANOSAT C BR1 19 Apr 10:29:00 10:32:39 31° 73° (ENE) 10:36:23 145.865
VELOX 1 19 Apr 10:29:02 10:31:03 13° 91° (E) 10:33:19 145.980
TIGRISAT 19 Apr 10:35:32 10:39:55 82° 75° (ENE) 10:44:27 435.000
UNISAT 6 19 Apr 10:36:26 10:40:51 87° 78° (ENE) 10:45:25 437.425
UKube-1 19 Apr 10:42:24 10:46:31 43° 99° (E) 10:50:39 .
AISAT 19 Apr 10:42:53 10:46:09 21° 94° (E) 10:49:34 437.250
ZACube-1 19 Apr 10:47:03 10:51:41 89° 274° (W) 10:56:17 437.345
CUBEBUG 2 19 Apr 10:50:27 10:55:06 53° 285° (WNW) 10:59:43 437.445
AAUSAT CUBESAT 2 19 Apr 10:52:52 10:55:41 17° 290° (WNW) 10:58:20 437.432
POLYITAN 1 19 Apr 10:54:36 10:58:46 67° 76° (ENE) 11:02:58 437.675
CUBEBUG 1 19 Apr 10:56:04 10:57:37 12° 91° (E) 10:59:26 437.445
50 SAT 19 Apr 10:56:06 10:59:40 30° 97° (E) 11:03:15 437.505
ESTCUBE 1 19 Apr 10:57:14 10:59:43 15° 92° (E) 11:02:25 437.505/2401.250
HO-68 19 Apr 11:02:27 11:08:01 24° 297° (WNW) 11:13:19 435.675
Oscar 11 19 Apr 11:04:14 11:08:01 29° 288° (WNW) 11:11:43 145.826/435.025
DUCHIFAT 1 19 Apr 11:04:39 11:08:50 85° 78° (ENE) 11:13:03 145.980
DELFI C3 19 Apr 11:14:15 11:17:41 26° 288° (WNW) 11:21:01 145.870
QB50P1 19 Apr 11:17:27 11:21:36 64° 259° (W) 11:25:47 145.935-145.965
ANTELSAT 19 Apr 11:18:51 11:22:46 30° 264° (W) 11:26:44 437.575/2403.000
Cosmos 2491 19 Apr 11:19:47 11:28:33 70° 267° (W) 11:37:17 435.465 / 435.565
DX 1 19 Apr 11:25:00 11:29:14 53° 286° (WNW) 11:33:29 434.975-435.025
BUGSAT 1 19 Apr 11:32:04 11:36:04 61° 259° (W) 11:40:03 437.445
UWE-3 19 Apr 11:32:42 11:36:26 23° 289° (WNW) 11:40:03 435.000/436.395/437.385
HUMSAT D 19 Apr 11:40:57 11:45:05 43° 286° (WNW) 11:49:10 437.325/437.525
QB50P2 19 Apr 11:41:22 11:45:09 31° 263° (W) 11:48:54 145.880/145.840
FUNcube-1 19 Apr 12:02:41 12:05:12 14° 292° (WNW) 12:07:30 145.935
VELOX 1 19 Apr 12:03:40 12:07:54 44° 286° (WNW) 12:12:06 145.980
POPSAT HIP 1 19 Apr 12:05:37 12:08:29 17° 267° (W) 12:11:12 437.405
NANOSAT C BR1 19 Apr 12:05:45 12:08:37 17° 267° (W) 12:11:19 145.865
SO-50 19 Apr 12:18:08 12:21:43 24° 111° (ESE) 12:25:32 436.795
AISAT 19 Apr 12:18:55 12:22:47 29° 288° (WNW) 12:26:36 437.250
AIST 1 19 Apr 12:19:12 12:23:03 33° 78° (ENE) 12:26:57
UKube-1 19 Apr 12:19:58 12:22:21 14° 292° (WNW) 12:24:31 .
YUBILEINY 19 Apr 12:23:24 12:32:01 55° 282° (WNW) 12:40:37 435.215
CUBEBUG 1 19 Apr 12:30:07 12:34:18 47° 286° (WNW) 12:38:28 437.445
50 SAT 19 Apr 12:31:34 12:34:18 17° 290° (WNW) 12:36:53 437.505
ESTCUBE 1 19 Apr 12:32:37 12:36:50 40° 287° (WNW) 12:41:00 437.505/2401.250
TISAT 1 19 Apr 12:39:26 12:43:25 39° 99° (E) 12:47:24 437.305
SPROUT 19 Apr 12:42:29 12:46:44 56° 100° (E) 12:51:00 437.525
ISS 19 Apr 12:58:46 13:00:39 15° 129° (SE) 13:02:37 145.825
Oscar 19 19 Apr 13:05:22 13:10:18 51° 73° (ENE) 13:15:19 437.125/150
BEESAT 2 19 Apr 13:08:36 13:12:01 25° 53° (NE) 13:15:26 435.950
BEESAT 19 Apr 13:11:04 13:12:54 12° 90° (E) 13:15:02 436.000
SWISSCUBE 19 Apr 13:11:53 13:14:15 14° 91° (E) 13:16:53 437.505
Gurwin Techsat 1B 19 Apr 13:14:41 13:17:40 16° 66° (ENE) 13:20:55 435.225
BEESAT 3 19 Apr 13:16:08 13:19:55 36° 56° (NE) 13:23:40 437.485
ITAMSAT 1 19 Apr 13:25:18 13:29:19 24° 69° (ENE) 13:33:28 435.822/435.867
AIST 2 19 Apr 13:26:23 13:28:31 14° 47° (NE) 13:30:45 435.215
Cosmos 2504 19 Apr 13:42:48 13:51:03 50° 90° (E) 13:59:33 435.465 / 435.565
SO-50 19 Apr 13:57:56 14:02:07 32° 307° (NW) 14:06:24 436.795
AIST 1 19 Apr 13:57:59 14:00:27 15° 272° (W) 14:02:43
ITUPSAT 1 19 Apr 14:11:00 14:15:43 59° 101° (E) 14:20:24 437.325
JAS-2 19 Apr 14:14:39 14:18:02 14° 60° (ENE) 14:21:55 435.910
TISAT 1 19 Apr 14:16:28 14:18:55 15° 291° (WNW) 14:21:11 437.305
SPROUT 19 Apr 14:21:09 14:22:25 11° 293° (WNW) 14:23:24 437.525
AO-7 19 Apr 14:32:37 14:38:51 25° 60° (ENE) 14:45:21 29.400- 29.500
ISS 19 Apr 14:33:43 14:36:48 39° 322° (NW) 14:39:53 145.825
STARS 19 Apr 14:36:59 14:37:32 10° 90° (E) 14:38:25 437.465
HORYU 2 19 Apr 14:37:35 14:40:34 18° 69° (ENE) 14:43:44 437.375
BEESAT 19 Apr 14:46:30 14:51:10 54° 286° (WNW) 14:55:47 436.000
BEESAT 2 19 Apr 14:46:44 14:50:03 23° 248° (WSW) 14:53:15 435.950
Oscar 19 19 Apr 14:46:55 14:50:02 15° 269° (W) 14:52:53 437.125/150
SWISSCUBE 19 Apr 14:47:52 14:52:27 48° 286° (WNW) 14:56:59 437.505
Gurwin Techsat 1B 19 Apr 14:52:02 14:57:14 57° 259° (W) 15:02:28 435.225
RS-15 19 Apr 14:52:20 15:02:43 55° 112° (ESE) 15:13:21 29.354- 29.394
BEESAT 3 19 Apr 14:55:09 14:57:40 16° 250° (WSW) 15:00:00 437.485
KKS-1 19 Apr 14:58:43 15:02:45 33° 97° (E) 15:06:50 437.445
AIST 2 19 Apr 15:03:21 15:07:29 53° 244° (WSW) 15:11:31 435.215
ITAMSAT 1 19 Apr 15:03:55 15:08:40 35° 263° (W) 15:13:22 435.822/435.867
Cosmos 2504 19 Apr 15:36:59 15:44:46 33° 288° (WNW) 15:52:25 435.465 / 435.565
ITUPSAT 1 19 Apr 15:51:02 15:53:10 13° 294° (WNW) 15:55:03 437.325
JAS-2 19 Apr 15:54:19 16:02:00 76° 75° (ENE) 16:09:52 435.910
STARS 19 Apr 16:10:03 16:14:25 57° 285° (WNW) 16:18:47 437.465
HORYU 2 19 Apr 16:12:55 16:17:00 34° 263° (W) 16:21:05 437.375
MOZHAYETS 4 19 Apr 16:13:27 16:15:17 13° 90° (E) 16:17:23
AO-7 19 Apr 16:22:52 16:31:06 66° 256° (WSW) 16:39:20 29.400- 29.500
KKS-1 19 Apr 16:35:58 16:39:12 19° 291° (WNW) 16:42:17 437.445
GONETS M04 19 Apr 16:45:00 16:53:10 48° 90° (E) 17:01:32
CUTE-I 19 Apr 17:03:50 17:06:58 17° 66° (ENE) 17:10:20 437.470
RS-15 19 Apr 17:05:26 17:15:31 40° 313° (NW) 17:25:39 29.354- 29.394
Cubesat XI-IV 19 Apr 17:10:45 17:14:24 20° 67° (ENE) 17:18:14 437.490
JAS-2 19 Apr 17:42:18 17:47:46 19° 272° (W) 17:52:52 435.910
MOZHAYETS 4 19 Apr 17:48:25 17:52:53 50° 285° (WNW) 17:57:17
AUBIESAT-1 19 Apr 17:52:17 17:53:31 11° 93° (E) 17:54:58 437.475
DANDE 19 Apr 18:03:18 18:05:50 36° 93° (E) 18:08:52 436.750
CUSAT 1 19 Apr 18:08:13 18:11:04 81° 100° (E) 18:14:41 437.405
Cosmos 2499 19 Apr 18:25:26 18:33:11 37° 88° (E) 18:41:07 435.465 / 435.565
M-CUBED/EXP-1 PRIME 19 Apr 18:35:44 18:39:58 48° 103° (ESE) 18:43:50 437.505
VERMONT LUNAR 19 Apr 18:40:50 18:44:01 38° 149° (SSE) 18:47:12 437.305
CUTE-I 19 Apr 18:41:26 18:46:39 55° 260° (W) 18:51:53 437.470
GONETS M04 19 Apr 18:42:39 18:50:19 32° 288° (WNW) 18:57:51
Cubesat XI-IV 19 Apr 18:49:05 18:54:13 45° 261° (W) 18:59:19 437.490
PCSat 19 Apr 18:55:02 19:00:15 47° 59° (ENE) 19:05:28 145.827
CUBESAT XI-V 19 Apr 19:05:25 19:10:02 78° 103° (ESE) 19:14:38 437.345
PRISM 19 Apr 19:21:09 19:25:16 74° 102° (ESE) 19:29:20 437.425
AUBIESAT-1 19 Apr 19:24:36 19:28:46 47° 291° (WNW) 19:32:35 437.475
RS-15 19 Apr 19:27:37 19:32:31 13° 345° (NNW) 19:37:08 29.354- 29.394
CANX-2 19 Apr 19:29:48 19:30:56 11° 68° (ENE) 19:32:20 2200.000
BRITE-PL 19 Apr 19:33:54 19:37:12 24° 72° (ENE) 19:40:35 437.365/2234.400
HO-68 19 Apr 19:38:59 19:45:00 31° 66° (ENE) 19:51:11 435.675
CUTE 1.7 + AOD 2 19 Apr 19:39:11 19:41:06 13° 68° (ENE) 19:43:15 437.475
PHONESAT 2.4 19 Apr 19:39:24 19:42:46 40° 149° (SSE) 19:46:11 2401.200-2431.200
STRAND 1 19 Apr 19:42:24 19:47:31 83° 105° (ESE) 19:52:37 437.568
GOMX 1 19 Apr 19:55:58 19:59:24 26° 72° (ENE) 20:02:58 467.674
AAUSAT CUBESAT 2 19 Apr 20:05:19 20:07:37 15° 69° (ENE) 20:10:06 437.432
M-CUBED/EXP-1 PRIME 19 Apr 20:12:10 20:14:21 13° 299° (WNW) 20:16:16 437.505
Cosmos 2499 19 Apr 20:17:52 20:26:14 44° 284° (WNW) 20:34:29 435.465 / 435.565
VERMONT LUNAR 19 Apr 20:18:15 20:21:32 45° 344° (NNW) 20:24:48 437.305
Oscar 11 19 Apr 20:22:27 20:23:20 11° 67° (ENE) 20:24:29 145.826/435.025
PCSat 19 Apr 20:39:28 20:43:21 19° 253° (WSW) 20:47:01 145.827
COMPASS 1 19 Apr 20:50:24 20:54:34 62° 77° (ENE) 20:58:47 437.405
UWE-3 19 Apr 20:51:12 20:53:38 15° 68° (ENE) 20:56:15 435.000/436.395/437.385
SO-50 19 Apr 20:54:03 20:55:42 12° 42° (NE) 20:57:34 436.795
CINEMA 3 19 Apr 21:01:03 21:05:06 49° 74° (ENE) 21:09:18 145.822/145.860
CANX-2 19 Apr 21:02:15 21:06:27 54° 260° (W) 21:10:40 2200.000
ISS 19 Apr 21:03:45 21:06:50 40° 38° (NE) 21:09:55 145.825
DOVE 4 19 Apr 21:04:19 21:08:27 68° 260° (W) 21:12:40 437.250
SEEDS 19 Apr 21:05:12 21:09:26 69° 259° (WSW) 21:13:43 437.485
CUTE 1.7 + AOD 2 19 Apr 21:12:34 21:16:40 45° 262° (W) 21:20:48 437.475
BRITE-PL 19 Apr 21:12:35 21:15:46 20° 266° (W) 21:18:50 437.365/2234.400
PHONESAT 2.4 19 Apr 21:17:34 21:21:02 46° 344° (NNW) 21:24:30 2401.200-2431.200
FUNcube-1 19 Apr 21:17:51 21:21:13 24° 71° (ENE) 21:24:45 145.935
HO-68 19 Apr 21:25:42 21:32:31 45° 261° (W) 21:39:19 435.675
UKube-1 19 Apr 21:34:26 21:37:51 24° 71° (ENE) 21:41:22 .
GOMX 1 19 Apr 21:34:38 21:37:38 19° 267° (W) 21:40:32 467.674
AAUSAT CUBESAT 2 19 Apr 21:39:01 21:42:57 38° 262° (W) 21:46:54 437.432
AISAT 19 Apr 21:39:02 21:40:51 13° 67° (ENE) 21:42:55 437.250
ZACube-1 19 Apr 21:39:43 21:43:44 44° 74° (ENE) 21:47:54 437.345
50 SAT 19 Apr 21:40:27 21:41:43 12° 68° (ENE) 21:43:12 437.505
CUBEBUG 2 19 Apr 21:45:09 21:49:23 84° 80° (E) 21:53:47 437.445
RS-15 19 Apr 21:45:52 21:51:50 16° 22° (NNE) 21:58:24 29.354- 29.394
Oscar 11 19 Apr 21:54:47 21:59:04 58° 260° (W) 22:03:22 145.826/435.025
VERMONT LUNAR 19 Apr 21:56:31 21:59:30 28° 1° (N) 22:02:29 437.305
DELFI C3 19 Apr 21:57:30 22:01:35 71° 259° (W) 22:05:40 145.870
DX 1 19 Apr 22:16:50 22:21:09 83° 77° (ENE) 22:25:31 434.975-435.025
Cosmos 2491 19 Apr 22:21:34 22:28:23 28° 86° (E) 22:35:33 435.465 / 435.565
UWE-3 19 Apr 22:25:54 22:29:52 38° 263° (W) 22:33:55 435.000/436.395/437.385
HUMSAT D 19 Apr 22:28:54 22:33:03 82° 79° (E) 22:37:18 437.325/437.525
TIGRISAT 19 Apr 22:31:26 22:35:09 23° 94° (E) 22:38:57 435.000
SO-50 19 Apr 22:32:04 22:37:03 88° 63° (ENE) 22:41:56 436.795
UNISAT 6 19 Apr 22:32:32 22:36:22 25° 94° (E) 22:40:16 437.425
YUBILEINY 19 Apr 22:37:47 22:46:29 65° 80° (E) 22:55:08 435.215
ISS 19 Apr 22:41:06 22:42:58 14° 232° (SW) 22:44:44 145.825
CINEMA 3 19 Apr 22:41:38 22:42:45 11° 271° (W) 22:43:34 145.822/145.860
O/OREOS (USA 219) 19 Apr 22:41:38 22:45:16 24° 103° (ESE) 22:48:58 437.305
POLYITAN 1 19 Apr 22:45:04 22:47:24 15° 92° (E) 22:49:57 437.675
DUCHIFAT 1 19 Apr 22:54:00 22:56:52 18° 93° (E) 22:59:53 145.980
FUNcube-1 19 Apr 22:54:04 22:57:31 23° 266° (W) 23:00:56 145.935
PHONESAT 2.4 19 Apr 22:56:33 22:59:45 30° 1° (N) 23:02:57 2401.200-2431.200
VELOX 1 19 Apr 22:57:29 23:01:53 79° 258° (WSW) 23:06:18 145.980
QB50P1 19 Apr 23:06:32 23:10:07 26° 96° (E) 23:13:45 145.935-145.965
UKube-1 19 Apr 23:10:23 23:13:56 24° 264° (W) 23:17:25 .
50 SAT 19 Apr 23:12:24 23:16:11 44° 261° (W) 23:20:02 437.505
AISAT 19 Apr 23:12:49 23:17:05 49° 260° (W) 23:21:22 437.250
ANTELSAT 19 Apr 23:13:38 23:18:22 74° 101° (ESE) 23:23:03 437.575/2403.000
BUGSAT 1 19 Apr 23:18:13 23:21:31 24° 96° (E) 23:24:55 437.445
ZACube-1 19 Apr 23:18:33 23:20:27 12° 270° (W) 23:22:06 437.345
CUBEBUG 1 19 Apr 23:22:27 23:26:48 89° 78° (ENE) 23:31:09 437.445
ESTCUBE 1 19 Apr 23:28:18 23:32:49 69° 259° (W) 23:37:19 437.505/2401.250
TISAT 1 19 Apr 23:29:13 23:32:06 19° 70° (ENE) 23:35:09 437.305
QB50P2 19 Apr 23:29:42 23:33:53 52° 100° (E) 23:38:06 145.880/145.840
SPROUT 19 Apr 23:33:41 23:37:16 27° 72° (ENE) 23:40:55 437.525
VERMONT LUNAR 19 Apr 23:34:10 23:37:27 49° 17° (NNE) 23:40:43 437.305
Cosmos 2504 19 Apr 23:43:47 23:46:27 12° 61° (ENE) 23:49:42 435.465 / 435.565
NANOSAT C BR1 19 Apr 23:52:30 23:56:47 84° 283° (WNW) 00:01:04 145.865
POPSAT HIP 1 19 Apr 23:52:37 23:56:55 83° 283° (WNW) 00:01:12 437.405
RS-15 19 Apr 23:57:12 00:08:14 49° 51° (NE) 00:19:50 29.354- 29.394
TIGRISAT 20 Apr 00:07:47 00:11:54 29° 288° (WNW) 00:15:53 435.000
UNISAT 6 20 Apr 00:09:05 00:13:06 28° 289° (WNW) 00:17:02 437.425
BEESAT 20 Apr 00:15:55 00:16:40 10° 65° (ENE) 00:17:45 436.000
Cosmos 2491 20 Apr 00:16:22 00:24:50 54° 282° (WNW) 00:33:20 435.465 / 435.565
SWISSCUBE 20 Apr 00:16:22 00:18:00 12° 66° (ENE) 00:19:55 437.505
POLYITAN 1 20 Apr 00:19:30 00:23:31 38° 286° (WNW) 00:27:30 437.675
O/OREOS (USA 219) 20 Apr 00:20:39 00:24:35 27° 297° (WNW) 00:28:28 437.305
DUCHIFAT 1 20 Apr 00:28:59 00:32:46 31° 288° (WNW) 00:36:30 145.980
PHONESAT 2.4 20 Apr 00:34:56 00:38:26 53° 18° (NNE) 00:41:55 2401.200-2431.200
YUBILEINY 20 Apr 00:36:11 00:42:41 23° 276° (W) 00:48:44 435.215
QB50P1 20 Apr 00:42:33 00:45:52 22° 289° (WNW) 00:49:05 145.935-145.965
AIST 1 20 Apr 00:45:23 00:48:51 24° 91° (E) 00:52:24
BUGSAT 1 20 Apr 00:53:40 00:56:55 22° 289° (WNW) 01:00:05 437.445
TISAT 1 20 Apr 01:04:06 01:07:45 28° 264° (W) 01:11:21 437.305
QB50P2 20 Apr 01:07:47 01:09:24 12° 292° (WNW) 01:10:45 145.880/145.840
SPROUT 20 Apr 01:10:09 01:13:22 20° 266° (W) 01:16:29 437.525
VERMONT LUNAR 20 Apr 01:11:53 01:14:55 32° 212° (SSW) 01:17:55 437.305
ITUPSAT 1 20 Apr 01:14:22 01:18:55 46° 73° (ENE) 01:23:32 437.325
Oscar 19 20 Apr 01:21:04 01:25:11 24° 94° (E) 01:29:26 437.125/150
Cosmos 2504 20 Apr 01:33:22 01:41:34 82° 83° (E) 01:49:08 435.465 / 435.565
ITAMSAT 1 20 Apr 01:44:37 01:44:47 10° 89° (E) 01:45:23 435.822/435.867
BEESAT 20 Apr 01:49:13 01:54:00 72° 258° (WSW) 01:58:48 436.000
SWISSCUBE 20 Apr 01:50:39 01:55:24 63° 259° (W) 02:00:09 437.505
KKS-1 20 Apr 01:54:17 01:57:28 20° 70° (ENE) 02:00:47 437.445
PHONESAT 2.4 20 Apr 02:13:24 02:16:37 32° 212° (SSW) 02:19:48 2401.200-2431.200
